Regional Weather Roundup
Issued by NWS

Home | Current Version | Previous Version | Graphics & Text | Print | Product List | Glossary On
Versions: 1 2 3 4 5 6 7 8 9 10 11 12 13 14 15 16 17 18 19 20 21 22 23 24 25 26 27 28 29 30 31 32 33 34 35 36 37 38 39 40 41 42 43 44 45 46 47 48 49 50
000
ASUS43 KIND 020609
RWRIN

WEATHER ROUNDUP FOR INDIANA
NATIONAL WEATHER SERVICE INDIANAPOLIS IN
200 AM EDT TUE JUN 02 2015

NOTE: "FAIR" INDICATES FEW OR NO CLOUDS BELOW 12,000 FEET WITH NO
SIGNIFICANT WEATHER AND/OR OBSTRUCTIONS TO VISIBILITY.

* - STATION DOES NOT REPORT WEATHER SUCH AS PRECIPITATION OR FOG.

+ - STATION NOT QUALITY CONTROLLED BY THE NATIONAL WEATHER SERVICE.
    USE DATA WITH CAUTION...ESPECIALLY DEWPOINT AND RELATIVE
    HUMIDITY OBSERVATIONS.

INZ001>003-010>013-019-020-020700-
NORTHWEST INDIANA

CITY           SKY/WX    TMP DP  RH WIND       PRES   REMARKS
GARY /AIRPORT/ CLEAR     46  42  88 CALM      30.18F
KNOX *+        CLEAR     46  45  93 CALM      30.17F
LA PORTE +     CLEAR     49  46  92 CALM      30.19S
6HR MIN TEMP:  47; 6HR MAX TEMP:  58;

MICHIGAN CITY+ CLEAR     41  41 100 CALM      30.19S FOG
MONTICELLO +   CLEAR     50  49  98 CALM      30.17F
6HR MIN TEMP:  49; 6HR MAX TEMP:  64;

RENSSELAER +   CLEAR     46  45  93 CALM      30.18S
VALPARAISO     CLEAR     46  42  86 CALM      30.18F
6HR MIN TEMP:  46; 6HR MAX TEMP:  55;


$$

LMZ046-743>745-020700-
SOUTHERN LAKE MICHIGAN

STATION/POSITION TIME  TEMP    WIND        PRES    WAVE
                       AIR SEA DIR/SP/G            HT
                 (UTC) (F)     (DEG/KT/KT) (MB)    (FT)
BURNS HARBOR     0600          360/  4/  4 1022.4S
MICHIGAN CITY    0600   49     110/  2/  2   N/A
5NW MICH CITY    0600   48 56   20/  2/  4   N/A     2

$$

INZ004-005-014>016-021>024-020700-
NORTH CENTRAL INDIANA

CITY           SKY/WX    TMP DP  RH WIND       PRES   REMARKS
GOSHEN         CLEAR     48  45  89 E8        30.19S
6HR MIN TEMP:  48; 6HR MAX TEMP:  64;

LOGANSPORT +   CLEAR     46  45  93 E5        30.18F
PERU/GRISSOM   CLEAR     51  49  91 E6        30.17S
6HR MIN TEMP:  49; 6HR MAX TEMP:  61;

ROCHESTER +    CLEAR     50  50 100 CALM      30.18F
SOUTH BEND     CLEAR     49  43  80 CALM      30.19F
6HR MIN TEMP:  48; 6HR MAX TEMP:  63;

WARSAW +       CLEAR     46  46 100 CALM      30.19S FOG

$$

INZ006>009-017-018-025>027-020700-
NORTHEAST INDIANA

CITY           SKY/WX    TMP DP  RH WIND       PRES   REMARKS
ANGOLA *+      CLEAR     46  34  61 CALM      30.20F
AUBURN +       FOG       45  43  93 CALM      30.20F VSB 1/2
FORT WAYNE     MOCLDY    49  46  90 NE3       30.20S
6HR MIN TEMP:  49; 6HR MAX TEMP:  60;

HUNTINGTON +   CLEAR     47  46  97 CALM      30.19S FOG
6HR MIN TEMP:  47; 6HR MAX TEMP:  59;


$$

INZ028-029-035-036-043>045-051>053-020700-
WEST CENTRAL INDIANA

CITY           SKY/WX    TMP DP  RH WIND       PRES   REMARKS
CRAWFORDSVL +  CLEAR     52  45  76 E8        30.16S
6HR MIN TEMP:  52; 6HR MAX TEMP:  59;

GREENCASTLE +  CLEAR     52  45  76 E6        30.15F
LAFAYETTE      CLEAR     50  49  96 CALM      30.17S
6HR MIN TEMP:  50; 6HR MAX TEMP:  62;

TERRE HAUTE    CLOUDY    56  51  84 E8        30.15S
6HR MIN TEMP:  55; 6HR MAX TEMP:  62;


$$

INZ030>032-037>040-046>048-054>057-064-065-020700-
CENTRAL INDIANA

CITY           SKY/WX    TMP DP  RH WIND       PRES   REMARKS
CP ATTERBURY + CLOUDY    54  50  87 NE6       30.15F
FRANKFORT +    CLEAR     50  50 100 E3        30.18F
6HR MIN TEMP:  50; 6HR MAX TEMP:  61;

GREENWOOD *+   PTCLDY    52  46  82 NE3       30.17S
INDIANAPOLIS   PTCLDY    53  47  79 E9        30.14F
6HR MIN TEMP:  53; 6HR MAX TEMP:  60;

-EAGLE CREEK   CLEAR     53  47  79 NE6       30.16F
6HR MIN TEMP:  53; 6HR MAX TEMP:  59;

KOKOMO *+      CLEAR     50  46  87 E5        30.18F
6HR MIN TEMP:  50; 6HR MAX TEMP:  59;

MARION +       CLEAR     48  47  97 CALM      30.19S
MT COMFORT *+  PTCLDY    48 N/A N/A NE3       30.17S
SHELBYVILLE    PTCLDY    54  48  80 NE7       30.15F
6HR MIN TEMP:  54; 6HR MAX TEMP:  59;

ZIONSVILLE +   CLEAR     52  47  81 NE5       30.17F
6HR MIN TEMP:  52; 6HR MAX TEMP:  59;


$$

INZ033-034-041-042-049-050-058-059-020700-
EAST CENTRAL INDIANA

CITY           SKY/WX    TMP DP  RH WIND       PRES   REMARKS
MUNCIE         PTCLDY    50  46  86 E5        30.17F
6HR MIN TEMP:  50; 6HR MAX TEMP:  56;


$$

INZ060-061-067>069-081>083-085>088-020700-
SOUTHWEST INDIANA

CITY           SKY/WX    TMP DP  RH WIND       PRES   REMARKS
EVANSVILLE     CLOUDY    59  55  87 NE8       30.12F
6HR MIN TEMP:  59; 6HR MAX TEMP:  63;

HUNTINGBURG *+ CLOUDY    57  52  82 E12       30.12F
6HR MIN TEMP:  57; 6HR MAX TEMP:  61;

WASHINGTON +   CLOUDY    58  51  79 E10       30.13F
6HR MIN TEMP:  58; 6HR MAX TEMP:  61;


$$

INZ062-063-066-070>080-084-089>092-020700-
SOUTH CENTRAL AND SOUTHEAST INDIANA

CITY           SKY/WX    TMP DP  RH WIND       PRES   REMARKS
BLOOMINGTON    CLOUDY    55  50  83 NE12      30.14F
6HR MIN TEMP:  55; 6HR MAX TEMP:  59;

MADISON *+     CLOUDY    55  50  82 NE8       30.15F
NORTH VERNON + CLOUDY    55  55 100 NE9       30.15F
SEYMOUR +      CLOUDY    57  52  82 NE9       30.13F

$$



USA.gov is the U.S. government's official web portal to all federal, state and local government web resources and services.